Regional Weather Roundup
Issued by NWS Wilmington, NC

Home | Current Version | Previous Version | Text Only | Print | Product List | Glossary On
Versions: 1 2 3 4 5 6 7 8 9 10 11 12 13 14 15 16 17 18 19 20 21 22 23 24 25 26 27 28 29 30 31 32 33 34 35 36 37 38 39 40 41 42 43 44 45 46 47 48 49 50
831
ASUS42 KILM 200812
RWRILM
RWRILM
REGIONAL HOURLY WEATHER ROUNDUP
NATIONAL WEATHER SERVICE WILMINGTON NC
300 AM EST FRI JAN 20 2017

NOTE: "FAIR" INDICATES FEW OR NO CLOUDS BELOW 12,000 FEET WITH NO
SIGNIFICANT WEATHER AND/OR OBSTRUCTIONS TO VISIBILITY.

...............WFO WILMINGTON COUNTY WARNING AREA...............

......COASTAL NC AND SC COUNTIES......

CITY           SKY/WX    TMP DP  RH WIND       PRES   REMARKS
WILMINGTON     CLOUDY    47  46  97 CALM      29.98F
N MYRTLE BEACH CLOUDY    53  50  89 NE3       29.95F
MYRTLE BEACH   MOCLDY    57  50  77 E7        29.97F

......INLAND NC AND SC COUNTIES.......

CITY           SKY/WX    TMP DP  RH WIND       PRES   REMARKS
LUMBERTON      CLOUDY    49  46  90 E5        29.95F
ELIZABETHTOWN  CLOUDY    46  45  96 CALM      29.97F
WHITEVILLE     MOCLDY    50  46  85 CALM      29.97S
FLORENCE       CLOUDY    50  48  93 SE3       29.94F
DARLINGTON     MOCLDY    50  46  86 E3        29.94F
KINGSTREE      FAIR      52  48  87 E5        29.94S
HARTSVILLE     FAIR      48  45  87 E5        29.92F
BENNETTSVILLE  FAIR      52  48  87 E3        29.94F
CONWAY         FAIR      46  46 100 CALM      29.96F FOG
GEORGETOWN     FAIR      50  48  93 CALM      29.95F
MARION         FAIR      50  46  87 CALM      29.96F

....................REST OF NORTH CAROLINA......................

.........EASTERN NC.........

CITY           SKY/WX    TMP DP  RH WIND       PRES   REMARKS
CAPE HATTERAS  CLOUDY    48  44  86 NE5       30.02R
JACKSONVILLE   PTCLDY    42  41  96 CALM      30.00S
MOREHEAD CITY  MOCLDY    46  44  93 CALM      30.00S
KENANSVILLE    CLOUDY    41  41 100 CALM      29.99S
NEW BERN       PTCLDY    44  42  93 CALM      30.01S
ELIZABETH CITY CLOUDY    42  41  96 E3        30.01F

.........CENTRAL NC.........

CITY           SKY/WX    TMP DP  RH WIND       PRES   REMARKS
RALEIGH DURHAM CLOUDY    49  42  77 S5        29.97R
ROCKY MOUNT    CLOUDY    44  43  96 SE3       29.98F
ROANOKE RAPIDS NOT AVBL
FAYETTEVILLE   MOCLDY    47  44  90 CALM      29.96S
HOFFMAN        MOCLDY    46  43  87 CALM      29.95S

.........WESTERN NC.........

CITY           SKY/WX    TMP DP  RH WIND       PRES   REMARKS
CHARLOTTE      CLOUDY    54  43  66 SE9       29.89F
GREENSBORO     CLOUDY    49  40  71 S6        29.93S
HICKORY        NOT AVBL
BOONE          NOT AVBL
ASHEVILLE      NOT AVBL

.....................REST OF SOUTH CAROLINA.....................

.........EASTERN SC.........

CITY           SKY/WX    TMP DP  RH WIND       PRES   REMARKS
CHARLESTON     MOCLDY    58  53  84 SE5       29.93F
BEAUFORT MCAS  CLOUDY    60  57  89 S3        29.94R
HILTON HEAD    CLOUDY    57  57 100 CALM      29.95S

.........CENTRAL SC.........

CITY           SKY/WX    TMP DP  RH WIND       PRES   REMARKS
COLUMBIA       CLOUDY    56  50  80 E3        29.90F
ORANGEBURG     MOCLDY    56  53  90 E3        29.92F
SUMTER SHAW    CLOUDY    53  46  79 CALM      29.90F

.........WESTERN SC.........

CITY           SKY/WX    TMP DP  RH WIND       PRES   REMARKS
GREENVILLE     NOT AVBL
ROCK HILL      CLOUDY    54  45  71 VRB6      29.89F
ANDERSON       LGT RAIN  56  54  93 S9        29.83F
CLEMSON        NOT AVBL
GREENWOOD      CLOUDY    57  51  80 SE8       29.86F


...................COASTAL AND OFFSHORE REPORTS..................

................LOCAL PIERS AND NC RESERVE................


STATION/POSITION TIME  SKY/WX   TEMP    WIND        PRES    VSBY
                                AIR SEA DIR/SP/G
                 (UTC)          (F)     (DEG/KT/KT) (MB)    (MI)
JOHNY MRCER PIER 0742            54 55   40/  7/  8 1013.9F
NC RESRV MASNBRO 0645            52      50/  1     1014.0
OCEAN CREST PIER NOT AVBL
SPRINGMAID  PIER NOT AVBL


................COASTAL AND OFFSHORE BUOYS................


STATION/POSITION TIME  SKY/WX   TEMP    WIND        PRES    VSBY
                                AIR SEA DIR/SP/G
                 (UTC)          (F)     (DEG/KT/KT) (MB)    (MI)
DIMNDSHOAL 41025 0750            57 76   50/  6/  8 1016.1F
WVE H/P(F/S)=  5/11 SWL H/P/D(F/S/D)=  5/ 70/11

CAPE LOOKOUT     0700            54      20/  4/  5 1015.2F
ONSLOW BAY 41036 NOT AVBL
ONSLOW BAY 41064 0708            60 63   80/  6/  8 1015.4F
ONSLOW BAY 41159 0743               63                N/A
WVE H/P(F/S)=  3/ 8

MASNBO INL 41110 0759               53                N/A
WVE H/P(F/S)=  2/11

WILM HARBR 41108 0756               55                N/A
WVE H/P(F/S)=  2/ 9

27SE WRITB 41037 0708            64 71  120/  6/ 10 1015.0R
FRYING PAN 41013 0750            67 71  100/ 10/ 12 1014.5F
WVE H/P(F/S)=  2/10 SWL H/P/D(F/S/D)=  2/ 80/10

SUNST NRSH 41024 0708            55 54   60/  6/  8 1014.5S
CAPRS NRSH 41029 0708            56 55   60/  4/  6 1014.0F
EDISTO     41004 0650            70 72   30/  4/  6 1014.0
WVE H/P(F/S)=  3/ 8 SWL H/P/D(F/S/D)=  2/ 80/ 8



..........OFFSHORE BUOYS BEYOND 100 NM OFFSHORE...........
.....IN A TRIANGLE---HAT TO BERMUDA TO BAHAMAS TO HAT.....


STATION/POSITION TIME  SKY/WX   TEMP    WIND        PRES    VSBY
                                AIR SEA DIR/SP/G
                 (UTC)          (F)     (DEG/KT/KT) (MB)    (MI)
150E HAT   41001 NOT AVBL
W BERMUDA  41048 0750            66 70  320/ 16/ 19 1013.1R
WVE H/P(F/S)= 11/10 SWL H/P/D(F/S/D)= 10/ 20/10

ATLANTIC S 41049 0750            69 72  290/ 19/ 21 1009.7F
WVE H/P(F/S)= 10/11 SWL H/P/D(F/S/D)=  7/310/11

E BAHAMAS  41046 0750            75 78  300/  6/  8 1014.5F
WVE H/P(F/S)=  3/ 7 SWL H/P/D(F/S/D)=  3/ 7

NE BAHAMAS 41047 0750            70 74  330/  8/ 12 1014.4F
WVE H/P(F/S)=  6/ 9 SWL H/P/D(F/S/D)=  7/350/ 9

120E CANVRL41010 NOT AVBL

END




USA.gov is the U.S. government's official web portal to all federal, state and local government web resources and services.